Regional Weather Roundup
Issued by NWS

Home | Current Version | Previous Version | Text Only | Print | Product List | Glossary Off
Versions: 1 2 3 4 5 6 7 8 9 10 11 12 13 14 15 16 17 18 19 20 21 22 23 24 25 26 27 28 29 30 31 32 33 34 35 36 37 38 39 40 41 42 43 44 45 46 47 48 49 50

000
ASUS43 KFSD 102310
RWRSD

WEATHER ROUNDUP FOR SOUTH DAKOTA
NATIONAL WEATHER SERVICE SIOUX FALLS SD
600 PM CDT THU JUL 10 2014

NOTE: "FAIR" INDICATES FEW OR NO CLOUDS BELOW 12,000 FEET WITH NO
SIGNIFICANT WEATHER AND/OR OBSTRUCTIONS TO VISIBILITY.


SDZ001>005-009-010-012>017-110000-
NORTHWEST AND NORTH CENTRAL SOUTH DAKOTA

CITY           SKY/WX    TMP DP  RH WIND       PRES   REMARKS
BUFFALO          N/A     89  59  36 S6G16     29.76S
FAITH            N/A     80  67  64 S8        29.83S
MOBRIDGE       SUNNY     79  66  64 S10       29.79R
$$

SDZ012>016-024>037-041>051-057-063-072>074-110000-
SOUTHWEST AND SOUTH CENTRAL SOUTH DAKOTA

CITY           SKY/WX    TMP DP  RH WIND       PRES   REMARKS
RAPID CTY ARPT CLOUDY    82  61  48 W5        29.88F
PIERRE         CLOUDY    83  67  58 S7        29.78F
CUSTER         LGT RAIN  72  59  63 NE6       30.03S
ELLSWORTH AFB  CLOUDY    78  62  57 SW5       29.87F
PHILIP         PTSUNNY   86  65  49 SE5       29.79F
PINE RIDGE     MOSUNNY   87  65  47 NE13      29.85S
WINNER         FAIR      90  68  48 S16G26    29.80F
$$

SDZ004>011-016>023-039-040-110000-
NORTHEAST SOUTH DAKOTA

CITY           SKY/WX    TMP DP  RH WIND       PRES   REMARKS
ABERDEEN       LGT RAIN  75  70  84 SE9       29.82F
WATERTOWN      CLOUDY    76  65  68 S16G29    29.87F
SISSETON         N/A     78  64  61 S15       29.85F
$$

SDZ017-020-022-023-036>040-048>070-110000-
SOUTHEAST SOUTH DAKOTA

CITY           SKY/WX    TMP DP  RH WIND       PRES   REMARKS
SIOUX FALLS    CLOUDY    82  64  54 SE18      29.91F
HURON          CLOUDY    78  69  73 SE7       29.81F
CHAMBERLAIN    PTSUNNY   85  69  59 S12       29.81S
MITCHELL       PTSUNNY   83  66  56 S17G24    29.86R
YANKTON        PTSUNNY   82  68  61 S20       29.89
$$

ABBREVIATIONS USED IN REMARKS
   TC - TEMPERATURE IN CELSIUS
  WCI - WIND CHILL INDEX
   HX - HEAT INDEX
  VSB - VISIBILITY




USA.gov is the U.S. government's official web portal to all federal, state and local government web resources and services.